EST,Max TemperatureF,Mean TemperatureF,Min TemperatureF,Max Dew PointF,MeanDew PointF,Min DewpointF,Max Humidity, Mean Humidity, Min Humidity, Max Sea Level PressureIn, Mean Sea Level PressureIn, Min Sea Level PressureIn, Max VisibilityMiles, Mean VisibilityMiles, Min VisibilityMiles, Max Wind SpeedMPH, Mean Wind SpeedMPH, Max Gust SpeedMPH,PrecipitationIn, CloudCover, Events, WindDirDegrees
2013-1-1,24,22,21,17,13,9,81,68,59,30.13,30.06,30.00,10,9,2,18,11,26,0.00,8,Snow,290
2013-1-2,27,24,21,21,18,13,87,76,65,30.11,30.06,29.99,10,9,5,17,10,20,0.00,8,Snow,226
2013-1-3,30,27,24,25,22,19,90,79,66,30.05,30.00,29.95,10,9,4,20,11,34,0.00,8,Snow,247
2013-1-4,36,32,27,28,24,21,86,78,64,30.10,29.92,29.85,10,10,5,28,19,39,0.00,5,,252
2013-1-5,36,31,27,32,24,20,87,73,63,30.19,30.05,29.84,10,10,7,16,8,22,0.00,6,,177
2013-1-6,34,32,28,29,25,20,86,78,70,30.25,29.98,29.79,10,10,3,16,11,24,0.00,8,Snow,314
2013-1-7,39,32,26,29,24,18,79,70,58,30.25,30.05,29.89,10,10,10,29,10,41,0.00,3,,204
2013-1-8,40,36,32,31,30,26,90,78,66,30.14,30.06,29.95,10,8,3,17,10,28,0.00,1,,191
2013-1-9,39,37,35,32,28,24,79,69,60,30.42,30.03,29.80,10,10,10,31,16,40,0.00,5,,251
2013-1-10,41,34,27,27,24,23,86,66,48,30.53,30.39,30.10,10,10,7,14,7,21,0.00,0,,139
2013-1-11,44,39,34,44,38,24,99,95,55,30.08,29.77,29.66,10,5,1,13,8,18,0.00,8,Rain-Snow,159
2013-1-12,52,43,34,46,37,27,97,79,58,29.96,29.75,29.61,10,10,7,30,13,40,0.00,2,,215
2013-1-13,33,30,27,32,28,21,99,89,75,29.97,29.91,29.84,10,7,1,17,5,25,0.00,8,Rain-Snow,272
2013-1-14,26,24,21,24,15,10,93,71,54,30.35,30.25,29.97,10,8,1,22,15,30,0.00,7,Snow,253
2013-1-15,28,22,15,22,15,8,79,68,58,30.36,30.26,30.04,10,10,5,22,14,32,0.00,6,Snow,224
2013-1-16,32,28,23,30,22,13,95,79,63,30.03,29.80,29.63,10,7,0,25,12,34,0.00,6,Snow,236
2013-1-17,21,18,14,18,6,0,81,65,51,30.30,30.20,29.99,10,7,1,24,16,33,0.00,8,Snow,307
2013-1-18,39,26,14,32,15,3,93,75,57,30.34,30.08,29.72,10,7,1,16,11,24,0.00,8,Snow,205
2013-1-19,38,34,27,35,31,22,99,90,72,29.81,29.64,29.43,10,6,1,33,8,39,0.00,8,Rain-Snow,254
2013-1-20,26,20,14,17,7,1,88,68,55,30.13,29.98,29.51,10,5,0,33,24,45,0.00,8,Snow,303
2013-1-21,14,8,2,9,2,-6,85,75,60,30.05,29.98,29.92,10,2,0,24,16,31,0.00,8,Snow,288
2013-1-22,10,6,3,0,-3,-5,81,69,55,30.20,30.14,30.04,10,3,0,20,15,28,0.00,8,Snow,294
2013-1-23,15,12,10,10,5,-1,88,74,61,30.23,30.11,30.02,10,4,0,20,14,26,0.00,8,Snow,280
2013-1-24,12,6,0,6,0,-4,81,73,60,30.63,30.51,30.24,10,10,5,15,8,23,0.00,4,,84
2013-1-25,23,13,7,17,10,0,93,82,68,30.45,30.11,29.95,10,4,1,13,8,20,0.00,8,Snow,141
2013-1-26,26,19,13,19,16,12,93,80,66,30.39,30.25,30.02,10,9,3,12,7,18,0.00,5,Snow,41
2013-1-27,30,26,21,28,21,15,96,81,64,30.39,30.28,30.04,10,8,2,13,7,20,0.00,7,Snow,153
2013-1-28,33,30,28,32,29,27,99,95,87,30.03,29.92,29.82,10,6,1,9,5,,0.00,8,Snow,88
2013-1-29,48,39,30,48,37,28,100,97,92,29.98,29.65,29.48,10,6,0,15,7,21,0.00,8,Fog-Rain-Snow,141
2013-1-30,33,27,20,34,30,16,100,97,80,29.49,29.30,29.14,10,4,0,20,11,29,0.00,8,Rain-Snow,351
2013-1-31,19,18,16,15,12,9,91,79,71,29.84,29.57,29.25,10,3,0,25,17,36,0.00,8,Snow,319